Time,TemperatureF,DewpointF,PressureIn,WindDirection,WindDirectionDegrees,WindSpeedMPH,WindSpeedGustMPH,Humidity,HourlyPrecipIn,Conditions,Clouds,dailyrainin,SoftwareType,DateUTC
2013-08-25 00:00:00,75.0,70.9,29.99,SE,145,6.0,11.0,87,0.00,,CLR,0.00,VWS V14.01,2013-08-25 05:00:00,
2013-08-25 00:02:00,75.0,70.9,29.99,SE,139,7.0,7.0,87,0.00,,CLR,0.00,VWS V14.01,2013-08-25 05:02:00,
2013-08-25 00:07:00,75.1,70.6,29.99,SE,142,2.0,8.0,86,0.00,,CLR,0.00,VWS V14.01,2013-08-25 05:07:00,
2013-08-25 00:12:00,75.1,70.6,29.99,South,172,5.0,9.0,86,0.00,,CLR,0.00,VWS V14.01,2013-08-25 05:12:00,
2013-08-25 00:17:00,75.2,70.4,29.99,SSW,193,4.0,9.0,85,0.00,,CLR,0.00,VWS V14.01,2013-08-25 05:17:00,
2013-08-25 00:22:00,75.3,70.5,29.99,SSE,153,4.0,9.0,85,0.00,,CLR,0.00,VWS V14.01,2013-08-25 05:22:00,
2013-08-25 00:27:00,75.3,70.5,29.99,SSE,155,4.0,9.0,85,0.00,,CLR,0.00,VWS V14.01,2013-08-25 05:27:00,
2013-08-25 00:30:00,75.3,70.5,29.99,South,191,5.0,9.0,85,0.00,,CLR,0.00,VWS V14.01,2013-08-25 05:30:00,
2013-08-25 00:32:00,75.3,70.5,29.99,SSW,212,5.0,7.0,85,0.00,,CLR,0.00,VWS V14.01,2013-08-25 05:32:00,
2013-08-25 00:37:00,75.2,70.4,29.99,SW,217,3.0,9.0,85,0.00,,CLR,0.00,VWS V14.01,2013-08-25 05:37:00,
2013-08-25 00:42:00,75.2,70.4,29.99,SSW,194,5.0,9.0,85,0.00,,CLR,0.00,VWS V14.01,2013-08-25 05:42:00,
2013-08-25 00:47:00,75.1,70.3,29.99,South,171,6.0,10.0,85,0.00,,CLR,0.00,VWS V14.01,2013-08-25 05:47:00,
2013-08-25 00:52:00,75.0,70.2,29.99,SSE,160,4.0,10.0,85,0.00,,CLR,0.00,VWS V14.01,2013-08-25 05:52:00,
2013-08-25 00:57:00,74.8,70.0,29.99,SSW,208,7.0,10.0,85,0.00,,CLR,0.00,VWS V14.01,2013-08-25 05:57:00,
2013-08-25 01:00:00,74.8,70.0,29.99,SW,214,7.0,10.0,85,0.00,,CLR,0.00,VWS V14.01,2013-08-25 06:00:00,
2013-08-25 01:02:00,74.7,69.9,29.99,SE,145,2.0,10.0,85,0.00,,CLR,0.00,VWS V14.01,2013-08-25 06:02:00,
2013-08-25 01:07:00,74.6,69.8,30.00,SSE,158,6.0,10.0,85,0.00,,CLR,0.00,VWS V14.01,2013-08-25 06:07:00,
2013-08-25 01:12:00,74.5,70.0,30.00,SSE,153,4.0,10.0,86,0.00,,CLR,0.00,VWS V14.01,2013-08-25 06:12:00,
2013-08-25 01:17:00,74.4,69.6,29.99,SSE,166,5.0,10.0,85,0.00,,CLR,0.00,VWS V14.01,2013-08-25 06:17:00,
2013-08-25 01:22:00,74.5,69.7,29.99,SSW,207,5.0,10.0,85,0.00,,CLR,0.00,VWS V14.01,2013-08-25 06:22:00,
2013-08-25 01:27:00,74.5,69.7,30.00,South,181,6.0,10.0,85,0.00,,CLR,0.00,VWS V14.01,2013-08-25 06:27:00,
2013-08-25 01:30:00,74.4,69.6,30.00,SSW,212,4.0,10.0,85,0.00,,CLR,0.00,VWS V14.01,2013-08-25 06:30:00,
2013-08-25 01:32:00,74.4,69.6,30.00,SW,215,6.0,7.0,85,0.00,,CLR,0.00,VWS V14.01,2013-08-25 06:32:00,
2013-08-25 01:37:00,74.3,69.5,30.00,SSW,201,6.0,11.0,85,0.00,,CLR,0.00,VWS V14.01,2013-08-25 06:37:00,
2013-08-25 01:42:00,74.2,69.4,30.00,SSW,193,2.0,11.0,85,0.00,,CLR,0.00,VWS V14.01,2013-08-25 06:42:00,
2013-08-25 01:47:00,74.3,69.5,30.00,SSE,162,6.0,11.0,85,0.00,,CLR,0.00,VWS V14.01,2013-08-25 06:47:00,
2013-08-25 01:52:00,74.2,69.4,30.00,SSW,204,6.0,11.0,85,0.00,,CLR,0.00,VWS V14.01,2013-08-25 06:52:00,
2013-08-25 01:57:00,74.1,69.3,30.00,South,181,3.0,11.0,85,0.00,,CLR,0.00,VWS V14.01,2013-08-25 06:57:00,
2013-08-25 02:00:00,74.1,69.7,30.00,SSW,196,7.0,11.0,86,0.00,,CLR,0.00,VWS V14.01,2013-08-25 07:00:00,
2013-08-25 02:02:00,74.1,69.7,30.00,SSW,204,4.0,7.0,86,0.00,,CLR,0.00,VWS V14.01,2013-08-25 07:02:00,
2013-08-25 02:07:00,74.0,69.6,30.00,SW,217,7.0,8.0,86,0.00,,CLR,0.00,VWS V14.01,2013-08-25 07:07:00,
2013-08-25 02:12:00,74.1,69.3,30.00,SW,219,8.0,10.0,85,0.00,,CLR,0.00,VWS V14.01,2013-08-25 07:12:00,
2013-08-25 02:17:00,74.1,69.3,30.00,SSW,196,6.0,10.0,85,0.00,,CLR,0.00,VWS V14.01,2013-08-25 07:17:00,
2013-08-25 02:22:00,74.1,69.3,30.01,SSW,201,9.0,10.0,85,0.00,,CLR,0.00,VWS V14.01,2013-08-25 07:22:00,
2013-08-25 02:27:00,74.1,69.3,30.01,SSW,207,9.0,11.0,85,0.00,,CLR,0.00,VWS V14.01,2013-08-25 07:27:00,
2013-08-25 02:30:00,74.1,69.3,30.01,SSE,159,2.0,11.0,85,0.00,,CLR,0.00,VWS V14.01,2013-08-25 07:30:00,
2013-08-25 02:32:00,74.1,69.3,30.01,South,183,3.0,10.0,85,0.00,,CLR,0.00,VWS V14.01,2013-08-25 07:32:00,
2013-08-25 02:37:00,74.0,69.2,30.01,South,172,8.0,10.0,85,0.00,,CLR,0.00,VWS V14.01,2013-08-25 07:37:00,
2013-08-25 02:42:00,73.9,69.4,30.01,SSW,211,6.0,10.0,86,0.00,,CLR,0.00,VWS V14.01,2013-08-25 07:42:00,
2013-08-25 02:47:00,73.9,69.4,30.01,SSE,167,4.0,10.0,86,0.00,,CLR,0.00,VWS V14.01,2013-08-25 07:47:00,
2013-08-25 02:52:00,73.8,69.3,30.01,SSE,160,4.0,10.0,86,0.00,,CLR,0.00,VWS V14.01,2013-08-25 07:52:00,
2013-08-25 03:00:00,73.6,69.2,30.01,SW,221,6.0,10.0,86,0.00,,CLR,0.00,VWS V14.01,2013-08-25 08:00:00,
2013-08-25 03:15:00,73.2,69.1,30.01,SSW,193,7.0,10.0,87,0.00,,CLR,0.00,VWS V14.01,2013-08-25 08:15:00,
2013-08-25 03:21:00,73.2,69.1,30.01,WSW,252,4.0,10.0,87,0.00,,CLR,0.00,VWS V14.01,2013-08-25 08:21:00,
2013-08-25 03:26:00,73.1,69.0,30.01,SSE,158,5.0,11.0,87,0.00,,CLR,0.00,VWS V14.01,2013-08-25 08:26:00,
2013-08-25 03:30:00,73.1,69.0,30.00,SE,145,4.0,11.0,87,0.00,,CLR,0.00,VWS V14.01,2013-08-25 08:30:00,
2013-08-25 03:31:00,73.1,69.0,30.01,SSW,210,5.0,8.0,87,0.00,,CLR,0.00,VWS V14.01,2013-08-25 08:31:00,
2013-08-25 03:36:00,73.1,69.0,30.01,SW,216,7.0,11.0,87,0.00,,CLR,0.00,VWS V14.01,2013-08-25 08:36:00,
2013-08-25 03:41:00,73.1,69.0,30.00,SSE,148,4.0,11.0,87,0.00,,CLR,0.00,VWS V14.01,2013-08-25 08:41:00,
2013-08-25 03:46:00,72.9,69.1,30.00,SSE,155,4.0,11.0,88,0.00,,CLR,0.00,VWS V14.01,2013-08-25 08:46:00,
2013-08-25 03:51:00,72.8,69.0,30.01,SSW,210,4.0,11.0,88,0.00,,CLR,0.00,VWS V14.01,2013-08-25 08:51:00,
2013-08-25 03:56:00,72.8,69.0,30.01,SSW,205,9.0,11.0,88,0.00,,CLR,0.00,VWS V14.01,2013-08-25 08:56:00,
2013-08-25 04:00:00,72.8,69.0,30.01,SSE,158,3.0,11.0,88,0.00,,CLR,0.00,VWS V14.01,2013-08-25 09:00:00,
2013-08-25 04:01:00,72.8,69.0,30.01,South,188,4.0,6.0,88,0.00,,CLR,0.00,VWS V14.01,2013-08-25 09:01:00,
2013-08-25 04:06:00,72.8,69.0,30.01,South,169,2.0,10.0,88,0.00,,CLR,0.00,VWS V14.01,2013-08-25 09:06:00,
2013-08-25 04:11:00,72.7,68.9,30.01,South,176,5.0,10.0,88,0.00,,CLR,0.00,VWS V14.01,2013-08-25 09:11:00,
2013-08-25 04:16:00,72.7,68.9,30.01,South,172,6.0,11.0,88,0.00,,CLR,0.00,VWS V14.01,2013-08-25 09:16:00,
2013-08-25 04:21:00,72.7,68.9,30.01,SSW,208,8.0,11.0,88,0.00,,CLR,0.00,VWS V14.01,2013-08-25 09:21:00,
2013-08-25 04:26:00,72.6,68.8,30.01,SSW,210,5.0,11.0,88,0.00,,CLR,0.00,VWS V14.01,2013-08-25 09:26:00,
2013-08-25 04:30:00,72.6,68.8,30.01,SSW,210,4.0,11.0,88,0.00,,CLR,0.00,VWS V14.01,2013-08-25 09:30:00,
2013-08-25 04:31:00,72.6,68.8,30.01,SW,219,5.0,8.0,88,0.00,,CLR,0.00,VWS V14.01,2013-08-25 09:31:00,
2013-08-25 04:36:00,72.6,68.8,30.01,SSW,203,6.0,11.0,88,0.00,,CLR,0.00,VWS V14.01,2013-08-25 09:36:00,
2013-08-25 04:41:00,72.6,68.5,30.01,SSW,193,5.0,11.0,87,0.00,,CLR,0.00,VWS V14.01,2013-08-25 09:41:00,
2013-08-25 04:46:00,72.5,68.4,30.02,SSW,200,6.0,11.0,87,0.00,,CLR,0.00,VWS V14.01,2013-08-25 09:46:00,
2013-08-25 04:51:00,72.5,68.4,30.02,SSW,195,8.0,11.0,87,0.00,,CLR,0.00,VWS V14.01,2013-08-25 09:51:00,
2013-08-25 04:56:00,72.4,68.3,30.02,South,191,5.0,12.0,87,0.00,,CLR,0.00,VWS V14.01,2013-08-25 09:56:00,
2013-08-25 05:00:00,72.4,68.3,30.02,SSE,160,3.0,12.0,87,0.00,,CLR,0.00,VWS V14.01,2013-08-25 10:00:00,
2013-08-25 05:01:00,72.4,68.3,30.02,SSE,159,4.0,8.0,87,0.00,,CLR,0.00,VWS V14.01,2013-08-25 10:01:00,
2013-08-25 05:06:00,72.4,68.3,30.02,SSW,208,7.0,10.0,87,0.00,,CLR,0.00,VWS V14.01,2013-08-25 10:06:00,
2013-08-25 05:11:00,72.3,68.2,30.02,SSW,207,6.0,11.0,87,0.00,,CLR,0.00,VWS V14.01,2013-08-25 10:11:00,
2013-08-25 05:16:00,72.3,68.2,30.02,SE,140,5.0,11.0,87,0.00,,CLR,0.00,VWS V14.01,2013-08-25 10:16:00,
2013-08-25 05:21:00,72.2,68.4,30.02,South,190,4.0,11.0,88,0.00,,CLR,0.00,VWS V14.01,2013-08-25 10:21:00,
2013-08-25 05:26:00,72.2,68.4,30.02,SSE,166,5.0,12.0,88,0.00,,CLR,0.00,VWS V14.01,2013-08-25 10:26:00,
2013-08-25 05:30:00,72.1,68.3,30.02,SW,215,10.0,12.0,88,0.00,,CLR,0.00,VWS V14.01,2013-08-25 10:30:00,
2013-08-25 05:31:00,72.1,68.3,30.02,South,187,8.0,11.0,88,0.00,,CLR,0.00,VWS V14.01,2013-08-25 10:31:00,
2013-08-25 05:36:00,72.1,68.3,30.02,WSW,256,7.0,11.0,88,0.00,,CLR,0.00,VWS V14.01,2013-08-25 10:36:00,
2013-08-25 05:41:00,72.0,68.3,30.02,South,176,4.0,11.0,88,0.00,,CLR,0.00,VWS V14.01,2013-08-25 10:41:00,
2013-08-25 05:46:00,72.1,68.3,30.02,SSW,206,4.0,13.0,88,0.00,,CLR,0.00,VWS V14.01,2013-08-25 10:46:00,
2013-08-25 05:51:00,71.9,68.2,30.02,SSW,197,4.0,13.0,88,0.00,,CLR,0.00,VWS V14.01,2013-08-25 10:51:00,
2013-08-25 05:56:00,71.8,68.1,30.02,SSW,212,8.0,13.0,88,0.00,,CLR,0.00,VWS V14.01,2013-08-25 10:56:00,
2013-08-25 06:00:00,71.8,68.1,30.02,SSE,155,3.0,13.0,88,0.00,,CLR,0.00,VWS V14.01,2013-08-25 11:00:00,
2013-08-25 06:01:00,71.8,68.1,30.02,SW,224,4.0,8.0,88,0.00,,CLR,0.00,VWS V14.01,2013-08-25 11:01:00,
2013-08-25 06:06:00,71.7,68.3,30.02,SSE,167,8.0,12.0,89,0.00,,CLR,0.00,VWS V14.01,2013-08-25 11:06:00,
2013-08-25 06:11:00,71.6,68.2,30.02,SSW,205,4.0,12.0,89,0.00,,CLR,0.00,VWS V14.01,2013-08-25 11:11:00,
2013-08-25 06:16:00,71.6,68.2,30.03,SSE,159,4.0,12.0,89,0.00,,CLR,0.00,VWS V14.01,2013-08-25 11:16:00,
2013-08-25 06:21:00,71.5,68.1,30.03,South,181,7.0,12.0,89,0.00,,CLR,0.00,VWS V14.01,2013-08-25 11:21:00,
2013-08-25 06:26:00,71.5,68.1,30.03,SSW,210,6.0,12.0,89,0.00,,CLR,0.00,VWS V14.01,2013-08-25 11:26:00,
2013-08-25 06:30:00,71.5,68.1,30.03,SSE,147,2.0,12.0,89,0.00,,CLR,0.00,VWS V14.01,2013-08-25 11:30:00,
2013-08-25 06:31:00,71.5,68.1,30.03,SSW,194,5.0,12.0,89,0.00,,CLR,0.00,VWS V14.01,2013-08-25 11:31:00,
2013-08-25 06:36:00,71.5,68.1,30.03,SSW,197,5.0,12.0,89,0.00,,CLR,0.00,VWS V14.01,2013-08-25 11:36:00,
2013-08-25 06:41:00,71.5,68.1,30.03,SE,144,6.0,12.0,89,0.00,,CLR,0.00,VWS V14.01,2013-08-25 11:41:00,
2013-08-25 06:46:00,71.4,68.0,30.04,SW,219,6.0,12.0,89,0.00,,CLR,0.00,VWS V14.01,2013-08-25 11:46:00,
2013-08-25 06:51:00,71.4,68.0,30.04,SSW,211,6.0,12.0,89,0.00,,CLR,0.00,VWS V14.01,2013-08-25 11:51:00,
2013-08-25 06:56:00,71.4,68.0,30.04,SSW,207,4.0,12.0,89,0.00,,CLR,0.00,VWS V14.01,2013-08-25 11:56:00,
2013-08-25 07:00:00,71.3,67.9,30.04,SSW,211,5.0,12.0,89,0.00,,CLR,0.00,VWS V14.01,2013-08-25 12:00:00,
2013-08-25 07:01:00,71.3,68.2,30.04,South,188,4.0,8.0,90,0.00,,,0.00,VWS V14.01,2013-08-25 12:01:00,
2013-08-25 07:06:00,71.3,68.2,30.04,SSW,198,5.0,12.0,90,0.00,,,0.00,VWS V14.01,2013-08-25 12:06:00,
2013-08-25 07:11:00,71.3,67.9,30.04,SSW,205,8.0,12.0,89,0.00,,,0.00,VWS V14.01,2013-08-25 12:11:00,
2013-08-25 07:16:00,71.5,68.1,30.04,South,177,7.0,12.0,89,0.00,,,0.00,VWS V14.01,2013-08-25 12:16:00,
2013-08-25 07:21:00,71.6,68.2,30.04,SSW,194,4.0,12.0,89,0.00,,,0.00,VWS V14.01,2013-08-25 12:21:00,
2013-08-25 07:26:00,71.8,68.1,30.04,SW,214,6.0,13.0,88,0.00,,,0.00,VWS V14.01,2013-08-25 12:26:00,
2013-08-25 07:30:00,71.9,68.2,30.04,SSE,167,5.0,13.0,88,0.00,,CLR,0.00,VWS V14.01,2013-08-25 12:30:00,
2013-08-25 07:31:00,72.0,68.3,30.04,South,187,7.0,10.0,88,0.00,,,0.00,VWS V14.01,2013-08-25 12:31:00,
2013-08-25 07:36:00,72.2,68.4,30.04,South,179,7.0,14.0,88,0.00,,,0.00,VWS V14.01,2013-08-25 12:36:00,
2013-08-25 07:41:00,72.3,68.2,30.04,SW,224,9.0,15.0,87,0.00,,,0.00,VWS V14.01,2013-08-25 12:41:00,
2013-08-25 07:46:00,72.5,68.4,30.03,SE,138,4.0,15.0,87,0.00,,,0.00,VWS V14.01,2013-08-25 12:46:00,
2013-08-25 07:51:00,72.7,68.6,30.04,SSE,148,7.0,15.0,87,0.00,,,0.00,VWS V14.01,2013-08-25 12:51:00,
2013-08-25 07:56:00,73.0,68.6,30.03,WSW,240,8.0,15.0,86,0.00,,,0.00,VWS V14.01,2013-08-25 12:56:00,
2013-08-25 08:00:00,73.2,68.8,30.03,SW,218,6.0,15.0,86,0.00,,CLR,0.00,VWS V14.01,2013-08-25 13:00:00,
2013-08-25 08:01:00,73.2,68.8,30.03,SSE,152,5.0,9.0,86,0.00,,CLR,0.00,VWS V14.01,2013-08-25 13:01:00,
2013-08-25 08:06:00,73.5,68.7,30.03,SE,135,6.0,13.0,85,0.00,,CLR,0.00,VWS V14.01,2013-08-25 13:06:00,
2013-08-25 08:11:00,73.9,69.1,30.03,SW,217,3.0,13.0,85,0.00,,CLR,0.00,VWS V14.01,2013-08-25 13:11:00,
2013-08-25 08:16:00,74.2,69.1,30.03,SW,236,5.0,13.0,84,0.00,,CLR,0.00,VWS V14.01,2013-08-25 13:16:00,
2013-08-25 08:21:00,74.5,69.3,30.03,SSW,212,3.0,16.0,84,0.00,,CLR,0.00,VWS V14.01,2013-08-25 13:21:00,
2013-08-25 08:26:00,74.8,69.3,30.03,SSE,163,5.0,16.0,83,0.00,,CLR,0.00,VWS V14.01,2013-08-25 13:26:00,
2013-08-25 08:30:00,75.1,69.6,30.03,WSW,243,10.0,16.0,83,0.00,,CLR,0.00,VWS V14.01,2013-08-25 13:30:00,
2013-08-25 08:31:00,75.1,69.6,30.03,SSE,152,7.0,10.0,83,0.00,,CLR,0.00,VWS V14.01,2013-08-25 13:31:00,
2013-08-25 08:36:00,75.4,69.9,30.03,SW,215,10.0,15.0,83,0.00,,CLR,0.00,VWS V14.01,2013-08-25 13:36:00,
2013-08-25 08:41:00,75.7,69.8,30.03,South,186,5.0,15.0,82,0.00,,CLR,0.00,VWS V14.01,2013-08-25 13:41:00,
2013-08-25 08:46:00,76.0,69.8,30.03,WSW,242,6.0,15.0,81,0.00,,CLR,0.00,VWS V14.01,2013-08-25 13:46:00,
2013-08-25 08:51:00,76.3,70.1,30.03,WSW,256,9.0,15.0,81,0.00,,CLR,0.00,VWS V14.01,2013-08-25 13:51:00,
2013-08-25 08:56:00,76.5,70.2,30.03,SW,225,12.0,15.0,81,0.00,,CLR,0.00,VWS V14.01,2013-08-25 13:56:00,
2013-08-25 09:00:00,76.7,70.4,30.03,West,267,3.0,15.0,81,0.00,,CLR,0.00,VWS V14.01,2013-08-25 14:00:00,
2013-08-25 09:01:00,76.8,70.5,30.03,SSW,205,13.0,17.0,81,0.00,,CLR,0.00,VWS V14.01,2013-08-25 14:01:00,
2013-08-25 09:06:00,77.1,70.5,30.03,SW,235,6.0,17.0,80,0.00,,CLR,0.00,VWS V14.01,2013-08-25 14:06:00,
2013-08-25 09:11:00,77.5,70.8,30.03,SW,220,6.0,17.0,80,0.00,,CLR,0.00,VWS V14.01,2013-08-25 14:11:00,
2013-08-25 09:16:00,77.9,70.9,30.03,WSW,242,9.0,17.0,79,0.00,,CLR,0.00,VWS V14.01,2013-08-25 14:16:00,
2013-08-25 09:21:00,78.3,71.3,30.03,SW,226,9.0,17.0,79,0.00,,CLR,0.00,VWS V14.01,2013-08-25 14:21:00,
2013-08-25 09:26:00,78.7,71.3,30.03,SSW,193,8.0,17.0,78,0.00,,CLR,0.00,VWS V14.01,2013-08-25 14:26:00,
2013-08-25 09:30:00,79.0,71.6,30.03,West,263,7.0,17.0,78,0.00,,CLR,0.00,VWS V14.01,2013-08-25 14:30:00,
2013-08-25 09:31:00,79.1,71.7,30.03,SSW,210,7.0,13.0,78,0.00,,CLR,0.00,VWS V14.01,2013-08-25 14:31:00,
2013-08-25 09:36:00,79.4,71.6,30.03,WSW,252,5.0,16.0,77,0.00,,CLR,0.00,VWS V14.01,2013-08-25 14:36:00,
2013-08-25 09:41:00,79.6,71.8,30.03,WSW,243,5.0,16.0,77,0.00,,CLR,0.00,VWS V14.01,2013-08-25 14:41:00,
2013-08-25 09:46:00,79.7,71.5,30.03,WSW,248,9.0,16.0,76,0.00,,CLR,0.00,VWS V14.01,2013-08-25 14:46:00,
2013-08-25 09:51:00,79.6,71.4,30.03,WSW,245,10.0,18.0,76,0.00,,CLR,0.00,VWS V14.01,2013-08-25 14:51:00,
2013-08-25 09:56:00,79.6,71.8,30.02,SW,226,7.0,18.0,77,0.00,,CLR,0.00,VWS V14.01,2013-08-25 14:56:00,
2013-08-25 10:00:00,79.7,71.9,30.02,WSW,240,9.0,18.0,77,0.00,,CLR,0.00,VWS V14.01,2013-08-25 15:00:00,
2013-08-25 10:01:00,79.7,71.9,30.02,SW,219,6.0,14.0,77,0.00,,CLR,0.00,VWS V14.01,2013-08-25 15:01:00,
2013-08-25 10:06:00,79.7,71.1,30.02,WSW,240,8.0,20.0,75,0.00,,CLR,0.00,VWS V14.01,2013-08-25 15:06:00,
2013-08-25 10:11:00,79.9,72.1,30.02,WSW,245,8.0,20.0,77,0.00,,CLR,0.00,VWS V14.01,2013-08-25 15:11:00,
2013-08-25 10:16:00,80.1,72.2,30.02,SW,219,7.0,20.0,77,0.00,,CLR,0.00,VWS V14.01,2013-08-25 15:16:00,
2013-08-25 10:21:00,80.2,71.9,30.02,WSW,250,9.0,20.0,76,0.00,,CLR,0.00,VWS V14.01,2013-08-25 15:21:00,
2013-08-25 10:26:00,80.4,72.2,30.02,WSW,243,11.0,20.0,76,0.00,,CLR,0.00,VWS V14.01,2013-08-25 15:26:00,
2013-08-25 10:30:00,80.6,71.9,30.02,SW,235,10.0,22.0,75,0.00,,CLR,0.00,VWS V14.01,2013-08-25 15:30:00,
2013-08-25 10:31:00,80.6,71.9,30.02,SSW,204,11.0,13.0,75,0.00,,CLR,0.00,VWS V14.01,2013-08-25 15:31:00,
2013-08-25 10:36:00,80.7,71.7,30.02,South,176,7.0,15.0,74,0.00,,CLR,0.00,VWS V14.01,2013-08-25 15:36:00,
2013-08-25 10:41:00,81.1,72.8,30.02,SSW,210,9.0,15.0,76,0.00,,CLR,0.00,VWS V14.01,2013-08-25 15:41:00,
2013-08-25 10:46:00,81.6,73.3,30.02,West,264,6.0,16.0,76,0.00,,CLR,0.00,VWS V14.01,2013-08-25 15:46:00,
2013-08-25 10:51:00,82.0,73.3,30.02,SW,215,8.0,16.0,75,0.00,,CLR,0.00,VWS V14.01,2013-08-25 15:51:00,
2013-08-25 10:56:00,82.3,72.4,30.02,SW,236,8.0,16.0,72,0.00,,CLR,0.00,VWS V14.01,2013-08-25 15:56:00,
2013-08-25 11:00:00,82.3,72.8,30.02,SSW,200,12.0,16.0,73,0.00,,CLR,0.00,VWS V14.01,2013-08-25 16:00:00,
2013-08-25 11:05:00,82.6,73.5,30.02,WSW,245,8.0,8.0,74,0.00,,CLR,0.00,VWS V14.01,2013-08-25 16:05:00,
2013-08-25 11:10:00,82.8,73.3,30.02,West,280,10.0,15.0,73,0.00,,CLR,0.00,VWS V14.01,2013-08-25 16:10:00,
2013-08-25 11:15:00,83.1,73.1,30.02,SW,235,8.0,16.0,72,0.00,,CLR,0.00,VWS V14.01,2013-08-25 16:15:00,
2013-08-25 11:20:00,83.1,72.7,30.01,SW,228,6.0,17.0,71,0.00,,CLR,0.00,VWS V14.01,2013-08-25 16:20:00,
2013-08-25 11:25:00,83.3,72.9,30.01,SW,224,10.0,17.0,71,0.00,,CLR,0.00,VWS V14.01,2013-08-25 16:25:00,
2013-08-25 11:30:00,83.5,73.1,30.01,SSW,210,5.0,17.0,71,0.00,,CLR,0.00,VWS V14.01,2013-08-25 16:30:00,
2013-08-25 11:35:00,83.7,72.9,30.01,SW,235,8.0,14.0,70,0.00,,CLR,0.00,VWS V14.01,2013-08-25 16:35:00,
2013-08-25 11:40:00,83.9,72.7,30.01,WSW,248,16.0,17.0,69,0.00,,CLR,0.00,VWS V14.01,2013-08-25 16:40:00,
2013-08-25 11:45:00,84.1,72.8,30.01,WSW,252,10.0,17.0,69,0.00,,CLR,0.00,VWS V14.01,2013-08-25 16:45:00,
2013-08-25 11:50:00,84.3,72.6,30.00,SSW,205,7.0,17.0,68,0.00,,CLR,0.00,VWS V14.01,2013-08-25 16:50:00,
2013-08-25 11:55:00,84.6,73.7,30.00,SSW,207,5.0,17.0,70,0.00,,CLR,0.00,VWS V14.01,2013-08-25 16:55:00,
2013-08-25 12:00:00,85.0,74.1,30.00,West,263,4.0,17.0,70,0.00,,CLR,0.00,VWS V14.01,2013-08-25 17:00:00,
2013-08-25 12:05:00,85.0,72.8,30.00,SSE,160,11.0,20.0,67,0.00,,CLR,0.00,VWS V14.01,2013-08-25 17:05:00,
2013-08-25 12:10:00,85.0,72.8,30.00,SSW,205,8.0,20.0,67,0.00,,CLR,0.00,VWS V14.01,2013-08-25 17:10:00,
2013-08-25 12:15:00,85.4,73.6,30.00,WSW,252,6.0,20.0,68,0.00,,CLR,0.00,VWS V14.01,2013-08-25 17:15:00,
2013-08-25 12:20:00,85.4,74.1,30.00,SSW,212,13.0,20.0,69,0.00,,CLR,0.00,VWS V14.01,2013-08-25 17:20:00,
2013-08-25 12:25:00,85.5,74.2,30.00,SW,229,8.0,20.0,69,0.00,,CLR,0.00,VWS V14.01,2013-08-25 17:25:00,
2013-08-25 12:30:00,85.6,73.4,30.00,SE,132,16.0,20.0,67,0.00,,CLR,0.00,VWS V14.01,2013-08-25 17:30:00,
2013-08-25 12:35:00,85.6,73.4,30.00,WSW,250,10.0,17.0,67,0.00,,CLR,0.00,VWS V14.01,2013-08-25 17:35:00,
2013-08-25 12:40:00,85.8,74.0,30.00,SW,235,8.0,17.0,68,0.00,,CLR,0.00,VWS V14.01,2013-08-25 17:40:00,
2013-08-25 12:45:00,85.9,74.1,29.99,SSE,152,10.0,17.0,68,0.00,,CLR,0.00,VWS V14.01,2013-08-25 17:45:00,
2013-08-25 12:50:00,86.0,74.2,29.99,SW,218,11.0,17.0,68,0.00,,CLR,0.00,VWS V14.01,2013-08-25 17:50:00,
2013-08-25 12:55:00,86.3,74.1,29.99,SW,228,8.0,17.0,67,0.00,,CLR,0.00,VWS V14.01,2013-08-25 17:55:00,
2013-08-25 13:00:00,86.2,74.4,29.99,South,184,12.0,17.0,68,0.00,,CLR,0.00,VWS V14.01,2013-08-25 18:00:00,
2013-08-25 13:05:00,86.2,74.0,29.99,WSW,241,9.0,18.0,67,0.00,,CLR,0.00,VWS V14.01,2013-08-25 18:05:00,
2013-08-25 13:10:00,86.2,74.0,29.99,SSW,197,6.0,18.0,67,0.00,,CLR,0.00,VWS V14.01,2013-08-25 18:10:00,
2013-08-25 13:15:00,86.5,74.2,29.99,SSW,208,5.0,18.0,67,0.00,,CLR,0.00,VWS V14.01,2013-08-25 18:15:00,
2013-08-25 13:20:00,86.8,74.5,29.99,ESE,103,9.0,19.0,67,0.00,,CLR,0.00,VWS V14.01,2013-08-25 18:20:00,
2013-08-25 13:25:00,86.8,74.5,29.99,SW,235,13.0,19.0,67,0.00,,CLR,0.00,VWS V14.01,2013-08-25 18:25:00,
2013-08-25 13:30:00,86.9,74.2,29.99,South,173,6.0,19.0,66,0.00,,CLR,0.00,VWS V14.01,2013-08-25 18:30:00,
2013-08-25 13:35:00,87.0,75.2,29.99,SSW,199,7.0,16.0,68,0.00,,CLR,0.00,VWS V14.01,2013-08-25 18:35:00,
2013-08-25 13:40:00,87.0,73.8,29.99,SSW,211,8.0,17.0,65,0.00,,CLR,0.00,VWS V14.01,2013-08-25 18:40:00,
2013-08-25 13:45:00,87.2,74.0,29.99,SSE,155,11.0,17.0,65,0.00,,CLR,0.00,VWS V14.01,2013-08-25 18:45:00,
2013-08-25 13:50:00,87.4,73.7,29.98,SW,217,15.0,17.0,64,0.00,,CLR,0.00,VWS V14.01,2013-08-25 18:50:00,
2013-08-25 13:55:00,87.4,74.7,29.98,SSW,212,4.0,17.0,66,0.00,,CLR,0.00,VWS V14.01,2013-08-25 18:55:00,
2013-08-25 14:00:00,87.6,74.8,29.98,SSW,194,9.0,17.0,66,0.00,,CLR,0.00,VWS V14.01,2013-08-25 19:00:00,
2013-08-25 14:05:00,87.7,74.5,29.98,SW,217,12.0,16.0,65,0.00,,CLR,0.00,VWS V14.01,2013-08-25 19:05:00,
2013-08-25 14:10:00,87.8,74.6,29.98,SW,214,14.0,19.0,65,0.00,,CLR,0.00,VWS V14.01,2013-08-25 19:10:00,
2013-08-25 14:15:00,87.7,74.5,29.98,SSW,197,10.0,19.0,65,0.00,,CLR,0.00,VWS V14.01,2013-08-25 19:15:00,
2013-08-25 14:20:00,87.9,74.2,29.98,SSW,197,6.0,19.0,64,0.00,,CLR,0.00,VWS V14.01,2013-08-25 19:20:00,
2013-08-25 14:25:00,88.0,74.3,29.98,SSW,207,14.0,19.0,64,0.00,,CLR,0.00,VWS V14.01,2013-08-25 19:25:00,
2013-08-25 14:30:00,88.0,74.8,29.98,SSW,208,13.0,19.0,65,0.00,,CLR,0.00,VWS V14.01,2013-08-25 19:30:00,
2013-08-25 14:35:00,88.2,75.0,29.98,WSW,252,14.0,15.0,65,0.00,,CLR,0.00,VWS V14.01,2013-08-25 19:35:00,
2013-08-25 14:40:00,88.3,74.6,29.97,SSW,207,9.0,18.0,64,0.00,,CLR,0.00,VWS V14.01,2013-08-25 19:40:00,
2013-08-25 14:48:00,88.5,74.8,29.97,SW,219,13.0,13.0,64,0.00,,CLR,0.00,VWS V14.01,2013-08-25 19:48:00,
2013-08-25 14:53:00,88.4,74.2,29.97,South,187,5.0,18.0,63,0.00,,CLR,0.00,VWS V14.01,2013-08-25 19:53:00,
2013-08-25 14:58:00,88.6,74.4,29.97,SW,224,8.0,18.0,63,0.00,,CLR,0.00,VWS V14.01,2013-08-25 19:58:00,
2013-08-25 15:00:00,87.6,74.4,29.98,SSW,203,12.0,17.0,65,0.00,,,0.00,VWS V14.01,2013-08-25 20:00:00,
2013-08-25 15:03:00,88.7,74.0,29.96,SW,228,14.0,17.0,62,0.00,,CLR,0.00,VWS V14.01,2013-08-25 20:03:00,
2013-08-25 15:08:00,88.8,74.6,29.96,SSW,210,8.0,18.0,63,0.00,,CLR,0.00,VWS V14.01,2013-08-25 20:08:00,
2013-08-25 15:13:00,89.0,74.8,29.96,SW,224,10.0,18.0,63,0.00,,CLR,0.00,VWS V14.01,2013-08-25 20:13:00,
2013-08-25 15:18:00,88.9,75.2,29.95,SW,226,14.0,18.0,64,0.00,,CLR,0.00,VWS V14.01,2013-08-25 20:18:00,
2013-08-25 15:23:00,89.0,74.3,29.95,SW,224,11.0,18.0,62,0.00,,CLR,0.00,VWS V14.01,2013-08-25 20:23:00,
2013-08-25 15:28:00,89.1,74.4,29.95,SW,222,16.0,18.0,62,0.00,,CLR,0.00,VWS V14.01,2013-08-25 20:28:00,
2013-08-25 15:30:00,88.0,74.8,29.98,SSW,211,15.0,19.0,65,0.00,,,0.00,VWS V14.01,2013-08-25 20:30:00,
2013-08-25 15:33:00,89.0,74.8,29.95,SW,214,8.0,15.0,63,0.00,,CLR,0.00,VWS V14.01,2013-08-25 20:33:00,
2013-08-25 15:38:00,89.1,74.4,29.95,WSW,245,8.0,19.0,62,0.00,,CLR,0.00,VWS V14.01,2013-08-25 20:38:00,
2013-08-25 15:43:00,89.2,75.0,29.95,SSW,203,10.0,19.0,63,0.00,,CLR,0.00,VWS V14.01,2013-08-25 20:43:00,
2013-08-25 15:48:00,89.2,74.5,29.95,SSE,148,13.0,20.0,62,0.00,,CLR,0.00,VWS V14.01,2013-08-25 20:48:00,
2013-08-25 15:53:00,89.2,74.5,29.95,SSW,212,10.0,20.0,62,0.00,,CLR,0.00,VWS V14.01,2013-08-25 20:53:00,
2013-08-25 15:58:00,89.2,74.5,29.95,SSW,195,13.0,20.0,62,0.00,,CLR,0.00,VWS V14.01,2013-08-25 20:58:00,
2013-08-25 16:00:00,88.7,74.5,29.97,SE,143,13.0,18.0,63,0.00,,,0.00,VWS V14.01,2013-08-25 21:00:00,
2013-08-25 16:03:00,89.3,75.1,29.95,SSE,162,9.0,16.0,63,0.00,,CLR,0.00,VWS V14.01,2013-08-25 21:03:00,
2013-08-25 16:08:00,89.4,74.7,29.95,SSE,163,9.0,18.0,62,0.00,,CLR,0.00,VWS V14.01,2013-08-25 21:08:00,
2013-08-25 16:13:00,89.5,75.2,29.95,South,184,7.0,18.0,63,0.00,,CLR,0.00,VWS V14.01,2013-08-25 21:13:00,
2013-08-25 16:18:00,89.5,76.2,29.95,SSE,157,7.0,18.0,65,0.00,,CLR,0.00,VWS V14.01,2013-08-25 21:18:00,
2013-08-25 16:23:00,89.6,76.3,29.95,ESE,119,12.0,18.0,65,0.00,,CLR,0.00,VWS V14.01,2013-08-25 21:23:00,
2013-08-25 16:28:00,89.4,75.6,29.95,South,184,7.0,18.0,64,0.00,,CLR,0.00,VWS V14.01,2013-08-25 21:28:00,
2013-08-25 16:30:00,89.0,74.8,29.95,SSE,166,7.0,19.0,63,0.00,,,0.00,VWS V14.01,2013-08-25 21:30:00,
2013-08-25 16:33:00,89.3,75.1,29.95,SSW,210,11.0,15.0,63,0.00,,CLR,0.00,VWS V14.01,2013-08-25 21:33:00,
2013-08-25 16:37:00,89.4,76.1,29.95,South,179,6.0,18.0,65,0.00,,CLR,0.00,VWS V14.01,2013-08-25 21:37:00,
2013-08-25 16:42:00,89.5,75.2,29.95,SSW,210,8.0,18.0,63,0.00,,CLR,0.00,VWS V14.01,2013-08-25 21:42:00,
2013-08-25 16:47:00,89.4,75.2,29.94,SSW,193,11.0,18.0,63,0.00,,CLR,0.00,VWS V14.01,2013-08-25 21:47:00,
2013-08-25 16:52:00,89.5,74.8,29.94,SSE,160,10.0,18.0,62,0.00,,CLR,0.00,VWS V14.01,2013-08-25 21:52:00,
2013-08-25 16:57:00,89.5,76.2,29.94,South,170,10.0,18.0,65,0.00,,CLR,0.00,VWS V14.01,2013-08-25 21:57:00,
2013-08-25 17:00:00,89.3,74.6,29.95,South,189,8.0,20.0,62,0.00,,,0.00,VWS V14.01,2013-08-25 22:00:00,
2013-08-25 17:02:00,89.6,75.3,29.94,SSW,207,6.0,12.0,63,0.00,,CLR,0.00,VWS V14.01,2013-08-25 22:02:00,
2013-08-25 17:07:00,89.4,75.2,29.95,WSW,238,9.0,14.0,63,0.00,,CLR,0.00,VWS V14.01,2013-08-25 22:07:00,
2013-08-25 17:12:00,89.4,75.2,29.95,SSW,201,12.0,15.0,63,0.00,,CLR,0.00,VWS V14.01,2013-08-25 22:12:00,
2013-08-25 17:17:00,89.5,76.2,29.95,SSW,203,3.0,15.0,65,0.00,,CLR,0.00,VWS V14.01,2013-08-25 22:17:00,
2013-08-25 17:22:00,89.4,75.6,29.95,South,171,8.0,15.0,64,0.00,,CLR,0.00,VWS V14.01,2013-08-25 22:22:00,
2013-08-25 17:27:00,89.3,75.5,29.94,SSE,162,9.0,15.0,64,0.00,,CLR,0.00,VWS V14.01,2013-08-25 22:27:00,
2013-08-25 17:30:00,89.4,75.2,29.95,South,179,11.0,18.0,63,0.00,,,0.00,VWS V14.01,2013-08-25 22:30:00,
2013-08-25 17:32:00,89.1,75.8,29.94,SSW,199,7.0,12.0,65,0.00,,CLR,0.00,VWS V14.01,2013-08-25 22:32:00,
2013-08-25 17:37:00,89.1,75.8,29.95,SSE,158,7.0,13.0,65,0.00,,CLR,0.00,VWS V14.01,2013-08-25 22:37:00,
2013-08-25 17:42:00,89.0,76.2,29.94,SE,129,6.0,13.0,66,0.00,,CLR,0.00,VWS V14.01,2013-08-25 22:42:00,
2013-08-25 17:47:00,88.8,76.0,29.94,SSW,200,9.0,13.0,66,0.00,,CLR,0.00,VWS V14.01,2013-08-25 22:47:00,
2013-08-25 17:52:00,88.7,76.3,29.94,South,173,5.0,13.0,67,0.00,,CLR,0.00,VWS V14.01,2013-08-25 22:52:00,
2013-08-25 17:57:00,88.6,76.2,29.94,SE,146,8.0,13.0,67,0.00,,CLR,0.00,VWS V14.01,2013-08-25 22:57:00,
2013-08-25 18:00:00,89.6,74.9,29.94,SSW,200,9.0,18.0,62,0.00,,,0.00,VWS V14.01,2013-08-25 23:00:00,
2013-08-25 18:02:00,88.4,76.1,29.94,SW,218,8.0,9.0,67,0.00,,CLR,0.00,VWS V14.01,2013-08-25 23:02:00,
2013-08-25 18:07:00,88.2,75.9,29.94,SW,214,4.0,11.0,67,0.00,,CLR,0.00,VWS V14.01,2013-08-25 23:07:00,
2013-08-25 18:12:00,88.1,76.2,29.94,SSE,156,10.0,11.0,68,0.00,,CLR,0.00,VWS V14.01,2013-08-25 23:12:00,
2013-08-25 18:17:00,88.0,76.1,29.94,SSE,153,5.0,12.0,68,0.00,,CLR,0.00,VWS V14.01,2013-08-25 23:17:00,
2013-08-25 18:22:00,87.8,76.4,29.94,SSW,200,10.0,12.0,69,0.00,,CLR,0.00,VWS V14.01,2013-08-25 23:22:00,
2013-08-25 18:27:00,87.6,76.2,29.94,South,190,4.0,12.0,69,0.00,,CLR,0.00,VWS V14.01,2013-08-25 23:27:00,
2013-08-25 18:30:00,89.2,75.4,29.94,SSE,148,9.0,16.0,64,0.00,,,0.00,VWS V14.01,2013-08-25 23:30:00,
2013-08-25 18:32:00,87.5,76.1,29.94,SSE,151,4.0,10.0,69,0.00,,CLR,0.00,VWS V14.01,2013-08-25 23:32:00,
2013-08-25 18:37:00,87.3,75.9,29.94,SSW,195,4.0,10.0,69,0.00,,CLR,0.00,VWS V14.01,2013-08-25 23:37:00,
2013-08-25 18:42:00,87.2,75.8,29.94,SSW,200,8.0,10.0,69,0.00,,CLR,0.00,VWS V14.01,2013-08-25 23:42:00,
2013-08-25 18:47:00,86.9,75.5,29.94,SE,145,5.0,13.0,69,0.00,,CLR,0.00,VWS V14.01,2013-08-25 23:47:00,
2013-08-25 18:52:00,86.8,75.4,29.94,SSE,162,5.0,13.0,69,0.00,,CLR,0.00,VWS V14.01,2013-08-25 23:52:00,
2013-08-25 18:57:00,86.6,75.7,29.94,SSW,208,6.0,13.0,70,0.00,,CLR,0.00,VWS V14.01,2013-08-25 23:57:00,
2013-08-25 19:00:00,88.4,76.1,29.94,SW,228,5.0,13.0,67,0.00,,,0.00,VWS V14.01,2013-08-26 00:00:00,
2013-08-25 19:02:00,86.4,75.5,29.94,SSW,204,7.0,7.0,70,0.00,,CLR,0.00,VWS V14.01,2013-08-26 00:02:00,
2013-08-25 19:07:00,86.1,75.2,29.94,South,169,6.0,9.0,70,0.00,,CLR,0.00,VWS V14.01,2013-08-26 00:07:00,
2013-08-25 19:12:00,85.9,75.0,29.94,South,188,5.0,9.0,70,0.00,,CLR,0.00,VWS V14.01,2013-08-26 00:12:00,
2013-08-25 19:17:00,85.6,75.1,29.94,South,181,4.0,9.0,71,0.00,,CLR,0.00,VWS V14.01,2013-08-26 00:17:00,
2013-08-25 19:22:00,85.3,74.8,29.94,SSW,200,4.0,9.0,71,0.00,,CLR,0.00,VWS V14.01,2013-08-26 00:22:00,
2013-08-25 19:27:00,84.9,74.4,29.94,SSW,198,4.0,9.0,71,0.00,,CLR,0.00,VWS V14.01,2013-08-26 00:27:00,
2013-08-25 19:30:00,87.6,76.2,29.94,SE,133,7.0,12.0,69,0.00,,,0.00,VWS V14.01,2013-08-26 00:30:00,
2013-08-25 19:32:00,84.5,74.5,29.94,SSW,195,4.0,10.0,72,0.00,,CLR,0.00,VWS V14.01,2013-08-26 00:32:00,
2013-08-25 19:37:00,84.1,74.1,29.94,SSE,152,8.0,10.0,72,0.00,,CLR,0.00,VWS V14.01,2013-08-26 00:37:00,
2013-08-25 19:42:00,83.7,74.1,29.94,SSE,158,5.0,10.0,73,0.00,,CLR,0.00,VWS V14.01,2013-08-26 00:42:00,
2013-08-25 19:47:00,83.4,73.8,29.94,SE,134,3.0,10.0,73,0.00,,CLR,0.00,VWS V14.01,2013-08-26 00:47:00,
2013-08-25 19:52:00,83.2,73.7,29.94,SSW,203,5.0,11.0,73,0.00,,CLR,0.00,VWS V14.01,2013-08-26 00:52:00,
2013-08-25 19:57:00,83.0,73.9,29.94,South,174,7.0,12.0,74,0.00,,CLR,0.00,VWS V14.01,2013-08-26 00:57:00,
2013-08-25 20:00:00,86.5,75.6,29.94,South,190,4.0,13.0,70,0.00,,,0.00,VWS V14.01,2013-08-26 01:00:00,
2013-08-25 20:02:00,82.7,73.6,29.94,SSE,155,6.0,8.0,74,0.00,,CLR,0.00,VWS V14.01,2013-08-26 01:02:00,
2013-08-25 20:07:00,82.4,73.3,29.95,South,179,6.0,8.0,74,0.00,,CLR,0.00,VWS V14.01,2013-08-26 01:07:00,
2013-08-25 20:12:00,82.0,73.3,29.95,South,177,6.0,8.0,75,0.00,,CLR,0.00,VWS V14.01,2013-08-26 01:12:00,
2013-08-25 20:17:00,81.7,73.4,29.95,SSW,195,5.0,8.0,76,0.00,,CLR,0.00,VWS V14.01,2013-08-26 01:17:00,
2013-08-25 20:22:00,81.6,72.9,29.95,SSW,207,8.0,9.0,75,0.00,,CLR,0.00,VWS V14.01,2013-08-26 01:22:00,
2013-08-25 20:27:00,81.7,73.0,29.95,South,172,4.0,10.0,75,0.00,,CLR,0.00,VWS V14.01,2013-08-26 01:27:00,
2013-08-25 20:30:00,84.6,74.2,29.94,SE,145,3.0,9.0,71,0.00,,,0.00,VWS V14.01,2013-08-26 01:30:00,
2013-08-25 20:32:00,81.7,72.6,29.95,SSW,204,8.0,10.0,74,0.00,,CLR,0.00,VWS V14.01,2013-08-26 01:32:00,
2013-08-25 20:37:00,81.7,72.6,29.95,SSW,193,8.0,10.0,74,0.00,,CLR,0.00,VWS V14.01,2013-08-26 01:37:00,
2013-08-25 20:42:00,81.5,72.4,29.95,SSW,197,5.0,10.0,74,0.00,,CLR,0.00,VWS V14.01,2013-08-26 01:42:00,
2013-08-25 20:47:00,81.3,72.6,29.95,SSW,212,3.0,10.0,75,0.00,,CLR,0.00,VWS V14.01,2013-08-26 01:47:00,
2013-08-25 20:52:00,81.0,72.3,29.95,SSE,160,8.0,10.0,75,0.00,,CLR,0.00,VWS V14.01,2013-08-26 01:52:00,
2013-08-25 20:57:00,80.7,72.4,29.96,SSW,196,8.0,10.0,76,0.00,,CLR,0.00,VWS V14.01,2013-08-26 01:57:00,
2013-08-25 21:00:00,82.8,73.7,29.94,SSW,198,5.0,12.0,74,0.00,,,0.00,VWS V14.01,2013-08-26 02:00:00,
2013-08-25 21:02:00,80.5,72.2,29.95,SSE,150,3.0,10.0,76,0.00,,CLR,0.00,VWS V14.01,2013-08-26 02:02:00,
2013-08-25 21:07:00,80.3,72.1,29.96,SSE,150,6.0,10.0,76,0.00,,CLR,0.00,VWS V14.01,2013-08-26 02:07:00,
2013-08-25 21:12:00,80.2,71.9,29.96,SE,145,4.0,10.0,76,0.00,,CLR,0.00,VWS V14.01,2013-08-26 02:12:00,
2013-08-25 21:17:00,80.0,72.2,29.96,SSE,166,6.0,10.0,77,0.00,,CLR,0.00,VWS V14.01,2013-08-26 02:17:00,
2013-08-25 21:22:00,79.9,72.1,29.96,SSE,152,6.0,10.0,77,0.00,,CLR,0.00,VWS V14.01,2013-08-26 02:22:00,
2013-08-25 21:27:00,79.7,71.9,29.96,SE,144,6.0,10.0,77,0.00,,CLR,0.00,VWS V14.01,2013-08-26 02:27:00,
2013-08-25 21:30:00,81.7,72.6,29.95,South,175,10.0,10.0,74,0.00,,,0.00,VWS V14.01,2013-08-26 02:30:00,
2013-08-25 21:32:00,79.6,71.8,29.96,South,177,4.0,8.0,77,0.00,,CLR,0.00,VWS V14.01,2013-08-26 02:32:00,
2013-08-25 21:37:00,79.4,71.6,29.97,SE,134,4.0,8.0,77,0.00,,CLR,0.00,VWS V14.01,2013-08-26 02:37:00,
2013-08-25 21:42:00,79.2,71.8,29.96,SSW,200,3.0,10.0,78,0.00,,CLR,0.00,VWS V14.01,2013-08-26 02:42:00,
2013-08-25 21:47:00,79.0,71.6,29.97,SSW,196,5.0,10.0,78,0.00,,CLR,0.00,VWS V14.01,2013-08-26 02:47:00,
2013-08-25 21:52:00,78.8,71.4,29.97,SSW,208,6.0,10.0,78,0.00,,CLR,0.00,VWS V14.01,2013-08-26 02:52:00,
2013-08-25 21:57:00,78.7,71.3,29.97,SSE,166,5.0,10.0,78,0.00,,CLR,0.00,VWS V14.01,2013-08-26 02:57:00,
2013-08-25 22:00:00,80.6,72.3,29.96,SSE,155,4.0,10.0,76,0.00,,,0.00,VWS V14.01,2013-08-26 03:00:00,
2013-08-25 22:02:00,78.9,71.5,29.97,SSW,205,4.0,8.0,78,0.00,,CLR,0.00,VWS V14.01,2013-08-26 03:02:00,
2013-08-25 22:07:00,78.9,71.5,29.97,South,179,4.0,9.0,78,0.00,,CLR,0.00,VWS V14.01,2013-08-26 03:07:00,
2013-08-25 22:12:00,79.0,71.2,29.97,SW,233,4.0,11.0,77,0.00,,CLR,0.00,VWS V14.01,2013-08-26 03:12:00,
2013-08-25 22:17:00,79.0,71.2,29.97,South,186,4.0,11.0,77,0.00,,CLR,0.00,VWS V14.01,2013-08-26 03:17:00,
2013-08-25 22:22:00,79.1,70.9,29.97,SW,233,10.0,11.0,76,0.00,,CLR,0.00,VWS V14.01,2013-08-26 03:22:00,
2013-08-25 22:27:00,79.2,71.0,29.97,SSW,210,4.0,11.0,76,0.00,,CLR,0.00,VWS V14.01,2013-08-26 03:27:00,
2013-08-25 22:30:00,79.6,71.8,29.96,South,190,4.0,10.0,77,0.00,,,0.00,VWS V14.01,2013-08-26 03:30:00,
2013-08-25 22:32:00,79.4,70.8,29.97,SW,231,10.0,11.0,75,0.00,,CLR,0.00,VWS V14.01,2013-08-26 03:32:00,
2013-08-25 22:37:00,79.4,70.8,29.97,South,184,10.0,11.0,75,0.00,,CLR,0.00,VWS V14.01,2013-08-26 03:37:00,
2013-08-25 22:42:00,79.5,70.9,29.97,SW,214,7.0,11.0,75,0.00,,CLR,0.00,VWS V14.01,2013-08-26 03:42:00,
2013-08-25 22:47:00,79.3,70.7,29.98,WSW,243,5.0,11.0,75,0.00,,CLR,0.00,VWS V14.01,2013-08-26 03:47:00,
2013-08-25 22:52:00,79.2,70.6,29.98,South,169,8.0,11.0,75,0.00,,CLR,0.00,VWS V14.01,2013-08-26 03:52:00,
2013-08-25 22:57:00,79.1,70.5,29.98,SSW,194,8.0,11.0,75,0.00,,CLR,0.00,VWS V14.01,2013-08-26 03:57:00,
2013-08-25 23:00:00,78.8,71.4,29.97,SSW,195,5.0,11.0,78,0.00,,,0.00,VWS V14.01,2013-08-26 04:00:00,
2013-08-25 23:01:00,79.0,70.4,29.98,WSW,245,4.0,4.0,75,0.00,,CLR,0.00,VWS V14.01,2013-08-26 04:01:00,
2013-08-25 23:06:00,78.9,70.3,29.98,SW,214,5.0,9.0,75,0.00,,CLR,0.00,VWS V14.01,2013-08-26 04:06:00,
2013-08-25 23:11:00,78.8,70.2,29.97,South,177,5.0,11.0,75,0.00,,CLR,0.00,VWS V14.01,2013-08-26 04:11:00,
2013-08-25 23:16:00,78.8,70.2,29.97,WSW,253,4.0,11.0,75,0.00,,CLR,0.00,VWS V14.01,2013-08-26 04:16:00,
2013-08-25 23:21:00,78.7,70.1,29.98,SW,214,4.0,11.0,75,0.00,,CLR,0.00,VWS V14.01,2013-08-26 04:21:00,
2013-08-25 23:26:00,78.7,70.5,29.98,SW,229,8.0,11.0,76,0.00,,CLR,0.00,VWS V14.01,2013-08-26 04:26:00,
2013-08-25 23:30:00,79.3,70.7,29.97,SSE,155,9.0,11.0,75,0.00,,,0.00,VWS V14.01,2013-08-26 04:30:00,
2013-08-25 23:31:00,78.6,70.4,29.97,SW,215,6.0,8.0,76,0.00,,CLR,0.00,VWS V14.01,2013-08-26 04:31:00,
2013-08-25 23:36:00,78.5,70.3,29.97,SSW,210,4.0,10.0,76,0.00,,CLR,0.00,VWS V14.01,2013-08-26 04:36:00,
2013-08-25 23:41:00,78.4,70.2,29.97,South,179,4.0,10.0,76,0.00,,CLR,0.00,VWS V14.01,2013-08-26 04:41:00,
2013-08-25 23:46:00,78.3,70.5,29.97,WSW,250,1.0,10.0,77,0.00,,CLR,0.00,VWS V14.01,2013-08-26 04:46:00,
2013-08-25 23:51:00,78.1,70.3,29.97,SSW,203,5.0,10.0,77,0.00,,CLR,0.00,VWS V14.01,2013-08-26 04:51:00,
2013-08-25 23:56:00,77.9,70.1,29.97,WSW,243,6.0,10.0,77,0.00,,CLR,0.00,VWS V14.01,2013-08-26 04:56:00,